Regional Weather Roundup
Issued by NWS Green Bay, WI

Home | Current Version | Previous Version | Graphics & Text | Print | Product List | Glossary Off
Versions: 1 2 3 4 5 6 7 8 9 10 11 12 13 14 15 16 17 18 19 20 21 22 23 24 25 26 27 28 29 30 31 32 33 34 35 36 37 38 39 40 41 42 43 44 45 46 47 48 49 50

000
ASUS43 KGRB 251810
RWRGRB

NORTH-CENTRAL AND NORTHEAST WISCONSIN REGIONAL WEATHER ROUNDUP
NATIONAL WEATHER SERVICE GREEN BAY WI
100 PM CDT SAT OCT 25 2014

WIZ005-009-010>012-018-019-251900-
NORTH CENTRAL WISCONSIN

CITY           SKY/WX    TMP DP  RH WIND       PRES   REMARKS
IRONWOOD       SUNNY     54  32  43 W24G30    29.82F
MANITOWISH WTR SUNNY     54  31  40 W15G24    29.86S
ARBOR VITAE    SUNNY     57  31  37 NW15G26   29.86F
EAGLE RIVER    SUNNY     56  24  28 NW17G29   29.82F
LAND O LAKES   SUNNY     56  25  31 NW15G24   29.83S
RHINELANDER    SUNNY     57  28  33 NW12G23   29.85F
PHILLIPS       SUNNY     55  30  37 W13G24    29.90S
ANTIGO         SUNNY     57  31  37 NW18G26   29.85F
TOMAHAWK       SUNNY     57  26  30 W18G29    29.89S
MERRILL        SUNNY     59  30  32 NW14G26   29.87F
$$

WIZ013-073-251900-
NORTHEAST WISCONSIN

CITY           SKY/WX    TMP DP  RH WIND       PRES   REMARKS
IRON MOUNTAIN  SUNNY     59  27  29 W29G38    29.76S
MARINETTE      SUNNY     63  30  29 NW16G28   29.76S
OCONTO         SUNNY     64  30  28 NW13G25   29.78F
$$

WIZ017-030-035>037-045-251900-
CENTRAL WISCONSIN

CITY           SKY/WX    TMP DP  RH WIND       PRES   REMARKS
MEDFORD        SUNNY     57  30  35 NW15G29   29.92R
WAUSAU         SUNNY     60  26  27 NW17G29   29.87F
MOSINEE        SUNNY     59  28  31 NW17G26   29.90F
MARSHFIELD     SUNNY     60  33  36 W21G30    29.93R
WISC RAPIDS    SUNNY     62  31  31 NW21G30   29.94S
STEVENS POINT  SUNNY     58  30  34 W15G26    29.90S
WAUPACA        SUNNY     64  28  25 W17G26    29.88S
SHAWANO        SUNNY     64  28  26 NW18G28   29.83F
CLINTONVILLE   SUNNY     63  30  29 NW16G24   29.84F
$$

WIZ038-039-048-051-251900-
FOX VALLEY

CITY           SKY/WX    TMP DP  RH WIND       PRES   REMARKS
NWS GREEN BAY  SUNNY     64  33  31 W17G25    29.82F
APPLETON       SUNNY     63  30  29 NW21      29.86F
OSHKOSH        SUNNY     63  33  32 W20G30    29.86F
FOND DU LAC    SUNNY     63  33  32 W21G30    29.88F
$$

WIZ022-050-052-251900-
EAST CENTRAL WISCONSIN

CITY           SKY/WX    TMP DP  RH WIND       PRES   REMARKS
STURGEON BAY   SUNNY     61  36  39 W13G22    29.79F
MANITOWOC      SUNNY     63  33  32 W25G31    29.82F
SHEBOYGAN      SUNNY     63  32  31 W23G30    29.85F
$$

LMZ563-521-522-541>543-251900-
LAKESHORE

STATION/POSITION TIME  TEMP    WIND        PRES    VSBY  WAVE
                       AIR SEA DIR/SP/G                  HT/PER
                 (UTC) (F)     (DEG/KT/KT) (MB)    (MI)  (FT/S)
SHEBOYGAN LKSHOR 1800   62 51  270/ 21/ 25 1010.6F
KEWAUNEE LKSHORE 1800   62     290/ 16/ 21 1008.5S
NORTHPORT PIER   1800   60     300/  8/ 15 1007.1S
N MID LAKE BUOY  1800   54 51  280/ 16/ 17 1006.4F         2/ 5
STURGEON BAY CG  1800   63 52  300/ 13     1009.0      6   1
CHAMBERS ISLAND  1800   63     290/  4/ 11 1007.8S
MENOMINEE LKSHOR 1800   62     280/ 11/ 21 1008.8R
$$



USA.gov is the U.S. government's official web portal to all federal, state and local government web resources and services.